Tracking 28794 objects as of 19-Apr-2024
HD Live streaming from Space Station
objects crossing your sky now

COSMOS 1300

Track COSMOS 1300 now!
10-day predictions
COSMOS 1300 is classified as:


NORAD ID: 12785
Int'l Code: 1981-082A
Perigee: 478.2 km
Apogee: 481.8 km
Inclination: 82.5 °
Period: 94.1 minutes
Semi major axis: 6851 km
RCS: 5.912 m2 (large)
Launch date: August 24, 1981
Source: Commonwealth of Independent States (former USSR) (CIS)
Launch site: PLESETSK MISSILE AND SPACE COMPLEX (PKMTR)
Your satellite tracking list
Your tracking list is empty




NASA's NSSDC Master Catalog

Two Line Element Set (TLE):
1 12785U 81082A   24109.52144994  .00016599  00000-0  55306-3 0  9998
2 12785  82.4943 114.2811 0002667 113.5332 246.6189 15.30984923330806
Source of the keplerian elements: AFSPC